< < Back
Terminal Aerodrome Forecast


Current Version              Previous Versions:   1  2  3  4  5  6  7  8  9  

Terminal Aerodrome Forecast

015
FTUS42 KMLB 242100 AAA
TAFMCO
TAF AMD
KMCO 242102Z 2421/2518 16010KT P6SM SCT080
     FM242200 12011KT P6SM SCT040 BKN060
     FM250200 VRB03KT P6SM FEW030 SCT080
     FM251400 24007KT P6SM SKC=

Latest METAR

849
SAUS70 KWBC 250300 RRN
MTRMCO
METAR KMCO 250253Z 00000KT 10SM BKN047 BKN055 24/19 A2999 RMK AO2 SLP154
T02390189 51016


USA.gov is the U.S. government's official web portal to all federal, state and local government web resources and services.